* Astronomy

Members Login
Username 
 
Password 
    Remember Me  
Post Info TOPIC: Asteroid 2011 WP46


L

Posts: 131433
Date:
Asteroid 2011 WP46
Permalink  
 


Orbital elements:
2011 WP46                                                Earth MOID = 0.3397 AU
Epoch 2011 Aug. 27.0 TT = JDT 2455800.5                 MPC
M  25.22327              (2000.0)            P               Q
n   0.39224258     Peri.  251.07243     +0.56864609     +0.66209556
a   1.8482735      Node    63.77851     -0.38397029     +0.73844518
e   0.3749572      Incl.   32.96486     -0.72746714     +0.12778177
P   2.51           H   19.9           G   0.15           U   9

MPEC 2011 - W72



__________________
Page 1 of 1  sorted by
 
Quick Reply

Please log in to post quick replies.



Create your own FREE Forum
Report Abuse
Powered by ActiveBoard